Location: Houhaj�rvi
(61.2667°N, 23.0167°E)
Time: 16:36:49
(UTC+00:00)

Meteor 1-10 Rocket - Pass Details

Date: 13 December 2019
Orbit: 836 x 909 km, 81.3° (Epoch: 21 January)

Event Time Altitude Azimuth Distance (km) Brightness Sun altitude
Rises 15:41:40 0° 198° (SSW) 3,391 7.9 -15.5°
Reaches altitude 10° 15:44:03 10° 199° (SSW) 2,466 7.2 -15.8°
Maximum altitude 15:49:39 84° 288° (WNW) 868 4.3 -16.4°
Drops below altitude 10° 15:55:24 10° 17° (NNE) 2,523 6.3 -17.1°
Enters shadow 15:55:49 - 17° (NNE) 2,682 6.5 -17.1°
